"Period start","avg(HW err(1)/warn(2) (#))","avg(Visibility (m))","avg(Weather code (#))","avg(Precip intensity (mm/h))","min(HW err(1)/warn(2) (#))","max(HW err(1)/warn(2) (#))","std(HW err(1)/warn(2) (#))","med(HW err(1)/warn(2) (#))","min(Visibility (m))","max(Visibility (m))","std(Visibility (m))","med(Visibility (m))","min(Weather code (#))","max(Weather code (#))","std(Weather code (#))","med(Weather code (#))","min(Precip intensity (mm/h))","max(Precip intensity (mm/h))","std(Precip intensity (mm/h))","med(Precip intensity (mm/h))"
2014-11-24 00:00:00,1,,,,1,1,0,1,,,,,,,,,,,,
2014-11-24 00:10:00,1,,,,1,1,0,1,,,,,,,,,,,,
2014-11-24 00:20:00,1,,,,1,1,0,1,,,,,,,,,,,,
2014-11-24 00:30:00,1,,,,1,1,0,1,,,,,,,,,,,,
2014-11-24 00:40:00,1,,,,1,1,0,1,,,,,,,,,,,,
2014-11-24 00:50:00,1,,,,1,1,0,1,,,,,,,,,,,,
2014-11-24 01:00:00,1,,,,1,1,0,1,,,,,,,,,,,,
2014-11-24 01:10:00,1,,,,1,1,0,1,,,,,,,,,,,,
2014-11-24 01:20:00,1,,,,1,1,0,1,,,,,,,,,,,,
2014-11-24 01:30:00,1,,,,1,1,0,1,,,,,,,,,,,,
2014-11-24 01:40:00,1,,,,1,1,0,1,,,,,,,,,,,,
2014-11-24 01:50:00,1,,,,1,1,0,1,,,,,,,,,,,,
2014-11-24 02:00:00,1,,,,1,1,0,1,,,,,,,,,,,,
2014-11-24 02:10:00,1,,,,1,1,0,1,,,,,,,,,,,,
2014-11-24 02:20:00,1,,,,1,1,0,1,,,,,,,,,,,,
2014-11-24 02:30:00,1,,,,1,1,0,1,,,,,,,,,,,,
2014-11-24 02:40:00,1,,,,1,1,0,1,,,,,,,,,,,,
2014-11-24 02:50:00,1,,,,1,1,0,1,,,,,,,,,,,,
2014-11-24 03:00:00,1,,,,1,1,0,1,,,,,,,,,,,,
2014-11-24 03:10:00,1,,,,1,1,0,1,,,,,,,,,,,,
2014-11-24 03:20:00,1,,,,1,1,0,1,,,,,,,,,,,,
2014-11-24 03:30:00,1,,,,1,1,0,1,,,,,,,,,,,,
2014-11-24 03:40:00,1,,,,1,1,0,1,,,,,,,,,,,,
2014-11-24 03:50:00,1,,,,1,1,0,1,,,,,,,,,,,,
2014-11-24 04:00:00,1,,,,1,1,0,1,,,,,,,,,,,,
2014-11-24 04:10:00,1,,,,1,1,0,1,,,,,,,,,,,,
2014-11-24 04:20:00,1,,,,1,1,0,1,,,,,,,,,,,,
2014-11-24 04:30:00,1,,,,1,1,0,1,,,,,,,,,,,,
2014-11-24 04:40:00,1,,,,1,1,0,1,,,,,,,,,,,,
2014-11-24 04:50:00,1,,,,1,1,0,1,,,,,,,,,,,,
2014-11-24 05:00:00,1,,,,1,1,0,1,,,,,,,,,,,,
2014-11-24 05:10:00,1,,,,1,1,0,1,,,,,,,,,,,,
2014-11-24 05:20:00,1,,,,1,1,0,1,,,,,,,,,,,,
2014-11-24 05:30:00,1,,,,1,1,0,1,,,,,,,,,,,,
2014-11-24 05:40:00,1,,,,1,1,0,1,,,,,,,,,,,,
2014-11-24 05:50:00,1,,,,1,1,0,1,,,,,,,,,,,,
2014-11-24 06:00:00,1,0,,0.00,1,2,0,1,0,0,0,0,,,,,0.00,0.00,0.00,0.00
2014-11-24 06:10:00,1,,,,1,1,0,1,,,,,,,,,,,,
2014-11-24 06:20:00,1,0,,0.00,1,2,0,1,0,0,0,0,,,,,0.00,0.00,0.00,0.00
2014-11-24 06:30:00,1,0,,0.00,1,2,0,1,0,0,0,0,,,,,0.00,0.00,0.00,0.00
2014-11-24 06:40:00,1,,,,1,1,0,1,,,,,,,,,,,,
2014-11-24 06:50:00,1,,,,1,1,0,1,,,,,,,,,,,,
2014-11-24 07:00:00,1,,,,1,1,0,1,,,,,,,,,,,,
2014-11-24 07:10:00,1,,,,1,1,0,1,,,,,,,,,,,,
2014-11-24 07:20:00,2,50000,,0.00,1,2,0,2,50000,50000,0,50000,,,,,0.00,0.00,0.00,0.00
2014-11-24 07:30:00,2,50000,0,0.00,2,2,0,2,50000,50000,0,50000,0,0,0,0,0.00,0.00,0.00,0.00
2014-11-24 07:40:00,2,50000,0,0.00,2,2,0,2,50000,50000,0,50000,0,0,0,0,0.00,0.00,0.00,0.00
2014-11-24 07:50:00,2,49438,0,0.00,2,2,0,2,47059,50000,1125,50000,0,0,0,0,0.00,0.00,0.00,0.00
2014-11-24 08:00:00,2,50000,0,0.00,2,2,0,2,50000,50000,0,50000,0,0,0,0,0.00,0.00,0.00,0.00
2014-11-24 08:10:00,2,44846,0,0.00,2,2,0,2,23415,50000,10315,50000,0,0,0,0,0.00,0.00,0.00,0.00
2014-11-24 08:20:00,2,48691,0,0.00,2,2,0,2,39242,50000,3226,50000,0,0,0,0,0.00,0.00,0.00,0.00
2014-11-24 08:30:00,2,50000,0,0.00,2,2,0,2,50000,50000,0,50000,0,0,0,0,0.00,0.00,0.00,0.00
2014-11-24 08:40:00,2,50000,0,0.00,2,2,0,2,50000,50000,0,50000,0,0,0,0,0.00,0.00,0.00,0.00
2014-11-24 08:50:00,2,50000,0,0.00,2,2,0,2,50000,50000,0,50000,0,0,0,0,0.00,0.00,0.00,0.00
2014-11-24 09:00:00,2,50000,0,0.00,2,2,0,2,50000,50000,0,50000,0,0,0,0,0.00,0.00,0.00,0.00
2014-11-24 09:10:00,2,50000,0,0.00,2,2,0,2,50000,50000,0,50000,0,0,0,0,0.00,0.00,0.00,0.00
2014-11-24 09:20:00,2,50000,0,0.00,2,2,0,2,50000,50000,0,50000,0,0,0,0,0.00,0.00,0.00,0.00
2014-11-24 09:30:00,2,50000,0,0.00,2,2,0,2,50000,50000,0,50000,0,0,0,0,0.00,0.00,0.00,0.00
2014-11-24 09:40:00,2,50000,0,0.00,2,2,0,2,50000,50000,0,50000,0,0,0,0,0.00,0.00,0.00,0.00
2014-11-24 09:50:00,2,49736,0,0.00,2,2,0,2,47355,50000,794,50000,0,0,0,0,0.00,0.00,0.00,0.00
2014-11-24 10:00:00,2,49921,0,0.00,2,2,0,2,49207,50000,238,50000,0,0,0,0,0.00,0.00,0.00,0.00
2014-11-24 10:10:00,2,50000,0,0.00,2,2,0,2,50000,50000,0,50000,0,0,0,0,0.00,0.00,0.00,0.00
2014-11-24 10:20:00,2,50000,0,0.00,2,2,0,2,50000,50000,0,50000,0,0,0,0,0.00,0.00,0.00,0.00
2014-11-24 10:30:00,2,50000,0,0.00,2,2,0,2,50000,50000,0,50000,0,0,0,0,0.00,0.00,0.00,0.00
2014-11-24 10:40:00,2,49996,0,0.00,2,2,0,2,49965,50000,10,50000,0,0,0,0,0.00,0.00,0.00,0.00
2014-11-24 10:50:00,2,50000,0,0.00,2,2,0,2,50000,50000,0,50000,0,0,0,0,0.00,0.00,0.00,0.00
2014-11-24 11:00:00,2,50000,0,0.00,2,2,0,2,50000,50000,0,50000,0,0,0,0,0.00,0.00,0.00,0.00
2014-11-24 11:10:00,2,50000,0,0.00,2,2,0,2,50000,50000,0,50000,0,0,0,0,0.00,0.00,0.00,0.00
2014-11-24 11:20:00,2,50000,0,0.00,2,2,0,2,50000,50000,0,50000,0,0,0,0,0.00,0.00,0.00,0.00
2014-11-24 11:30:00,2,50000,0,0.00,2,2,0,2,50000,50000,0,50000,0,0,0,0,0.00,0.00,0.00,0.00
2014-11-24 11:40:00,2,50000,0,0.00,2,2,0,2,50000,50000,0,50000,0,0,0,0,0.00,0.00,0.00,0.00
2014-11-24 11:50:00,2,50000,0,0.00,2,2,0,2,50000,50000,0,50000,0,0,0,0,0.00,0.00,0.00,0.00
2014-11-24 12:00:00,2,50000,0,0.00,2,2,0,2,50000,50000,0,50000,0,0,0,0,0.00,0.00,0.00,0.00
2014-11-24 12:10:00,2,50000,0,0.00,2,2,0,2,50000,50000,0,50000,0,0,0,0,0.00,0.00,0.00,0.00
2014-11-24 12:20:00,2,49952,0,0.00,2,2,0,2,49515,50000,146,50000,0,0,0,0,0.00,0.00,0.00,0.00
2014-11-24 12:30:00,2,40241,0,0.00,2,2,0,2,19853,50000,10620,45454,0,0,0,0,0.00,0.00,0.00,0.00
2014-11-24 12:40:00,2,18893,0,0.00,2,2,0,2,13327,23464,3882,20384,0,0,0,0,0.00,0.00,0.00,0.00
2014-11-24 12:50:00,2,42011,0,0.00,2,2,0,2,25267,50000,8752,46613,0,0,0,0,0.00,0.00,0.00,0.00
2014-11-24 13:00:00,2,43985,0,0.00,2,2,0,2,26407,50000,7316,47944,0,0,0,0,0.00,0.00,0.00,0.00
2014-11-24 13:10:00,2,36379,38,0.00,2,2,0,2,29995,44113,3734,36046,0,78,38,36,0.00,0.00,0.00,0.00
2014-11-24 13:20:00,2,26433,78,0.00,2,2,0,2,19695,31907,4014,27490,78,78,0,78,0.00,0.00,0.00,0.00
2014-11-24 13:30:00,1,7764,78,0.01,1,2,0,1,0,17526,7892,6766,78,78,0,78,0.00,0.05,0.02,0.00
2014-11-24 13:40:00,1,,,,1,1,0,1,,,,,,,,,,,,
2014-11-24 13:50:00,1,,,,1,1,0,1,,,,,,,,,,,,
2014-11-24 14:00:00,2,7069,78,0.04,1,2,0,2,0,10220,2814,8391,77,78,0,78,0.00,0.05,0.02,0.05
2014-11-24 14:10:00,2,8875,78,0.04,2,2,0,2,5361,13719,2173,8270,77,78,0,78,0.00,0.10,0.03,0.05
2014-11-24 14:20:00,2,12459,78,0.01,2,2,0,2,9126,15157,1774,11988,78,78,0,78,0.00,0.05,0.02,0.00
2014-11-24 14:30:00,2,14903,78,0.00,2,2,0,2,12512,17772,1349,14522,78,78,0,78,0.00,0.00,0.00,0.00
2014-11-24 14:40:00,2,12074,77,0.03,2,2,0,2,6827,20316,5097,10452,77,78,0,77,0.00,0.05,0.02,0.05
2014-11-24 14:50:00,2,6138,75,0.17,2,2,0,2,3759,12765,2678,5014,71,78,3,77,0.00,0.40,0.12,0.12
2014-11-24 15:00:00,2,7029,73,0.16,2,2,0,2,4248,9976,1928,7040,71,77,3,71,0.05,0.45,0.13,0.12
2014-11-24 15:10:00,2,6371,76,0.09,2,2,0,2,5589,7695,616,6538,71,78,2,77,0.05,0.25,0.06,0.05
2014-11-24 15:20:00,2,5545,74,0.08,2,2,0,2,4623,6135,572,5620,71,78,3,74,0.05,0.15,0.03,0.08
2014-11-24 15:30:00,2,5732,77,0.10,2,2,0,2,4259,8072,1356,5506,77,77,0,77,0.05,0.15,0.03,0.10
2014-11-24 15:40:00,2,6937,77,0.13,2,2,0,2,5560,7737,716,7210,77,77,0,77,0.10,0.20,0.04,0.10
2014-11-24 15:50:00,2,6052,77,0.17,2,2,0,2,5237,6727,550,6117,77,77,0,77,0.10,0.20,0.04,0.17
2014-11-24 16:00:00,2,9140,77,0.07,2,2,0,2,5731,12287,2090,8926,77,78,0,77,0.00,0.20,0.06,0.05
2014-11-24 16:10:00,2,7446,75,0.07,2,2,0,2,5702,10180,1292,7066,71,78,3,77,0.00,0.15,0.04,0.05
2014-11-24 16:20:00,2,6707,76,0.07,2,2,0,2,6173,7663,480,6536,71,77,2,77,0.05,0.10,0.02,0.05
2014-11-24 16:30:00,2,6374,77,0.04,2,2,0,2,5512,7341,530,6486,77,77,0,77,0.00,0.05,0.02,0.05
2014-11-24 16:40:00,2,8659,77,0.02,2,2,0,2,7974,10720,842,8294,77,77,0,77,0.00,0.05,0.02,0.00
2014-11-24 16:50:00,2,9502,77,0.00,2,2,0,2,7769,12593,1411,9430,77,77,0,77,0.00,0.00,0.00,0.00
2014-11-24 17:00:00,2,9146,78,0.00,2,2,0,2,8709,10041,422,9023,77,78,0,78,0.00,0.00,0.00,0.00
2014-11-24 17:10:00,2,11683,78,0.00,2,2,0,2,9619,13386,1109,11925,77,78,0,78,0.00,0.00,0.00,0.00
2014-11-24 17:20:00,2,16876,38,0.00,2,2,0,2,12442,25067,3807,16746,0,77,38,38,0.00,0.00,0.00,0.00
2014-11-24 17:30:00,2,22607,0,0.00,2,2,0,2,19715,27810,2346,21726,0,0,0,0,0.00,0.00,0.00,0.00
2014-11-24 17:40:00,2,26366,0,0.00,2,2,0,2,21377,31324,3567,26635,0,0,0,0,0.00,0.00,0.00,0.00
2014-11-24 17:50:00,2,22037,0,0.00,2,2,0,2,17553,27196,3052,21040,0,0,0,0,0.00,0.00,0.00,0.00
2014-11-24 18:00:00,2,33991,0,0.00,2,2,0,2,24013,48018,8271,31507,0,0,0,0,0.00,0.00,0.00,0.00
2014-11-24 18:10:00,2,49065,0,0.00,2,2,0,2,45156,50000,1584,50000,0,0,0,0,0.00,0.00,0.00,0.00
2014-11-24 18:20:00,2,48621,0,0.00,2,2,0,2,44866,50000,1708,49278,0,0,0,0,0.00,0.00,0.00,0.00
2014-11-24 18:30:00,2,47712,0,0.00,2,2,0,2,41809,50000,2970,49417,0,0,0,0,0.00,0.00,0.00,0.00
2014-11-24 18:40:00,2,48545,0,0.00,2,2,0,2,42626,50000,2366,50000,0,0,0,0,0.00,0.00,0.00,0.00
2014-11-24 18:50:00,2,37820,0,0.00,2,2,0,2,30576,43144,3609,37529,0,0,0,0,0.00,0.00,0.00,0.00
2014-11-24 19:00:00,2,14300,0,0.00,2,2,0,2,9555,25421,4668,12930,0,0,0,0,0.00,0.00,0.00,0.00
2014-11-24 19:10:00,2,7779,77,0.00,2,2,0,2,7296,8454,332,7770,71,78,3,78,0.00,0.00,0.00,0.00
2014-11-24 19:20:00,2,9318,78,0.00,2,2,0,2,8136,11635,1059,9297,78,78,0,78,0.00,0.00,0.00,0.00
2014-11-24 19:30:00,2,8735,78,0.00,2,2,0,2,7710,9762,620,8769,78,78,0,78,0.00,0.00,0.00,0.00
2014-11-24 19:40:00,2,6295,78,0.00,2,2,0,2,4628,9084,1132,6276,77,78,0,78,0.00,0.00,0.00,0.00
2014-11-24 19:50:00,2,5708,77,0.02,2,2,0,2,4846,6212,453,5886,77,77,0,77,0.00,0.05,0.02,0.00
2014-11-24 20:00:00,2,8401,77,0.02,2,2,0,2,6216,10798,1465,8720,77,77,0,77,0.00,0.05,0.02,0.00
2014-11-24 20:10:00,2,11056,77,0.02,2,2,0,2,9242,14618,1723,10480,77,77,0,77,0.00,0.05,0.02,0.00
2014-11-24 20:20:00,2,11755,78,0.00,2,2,0,2,8863,16175,2263,11158,77,78,0,78,0.00,0.00,0.00,0.00
2014-11-24 20:30:00,2,13499,78,0.01,2,2,0,2,10544,16636,1845,13610,77,78,0,78,0.00,0.05,0.02,0.00
2014-11-24 20:40:00,2,12168,77,0.01,2,2,0,2,9014,21772,3923,10139,77,78,0,77,0.00,0.05,0.02,0.00
2014-11-24 20:50:00,2,15440,78,0.00,2,2,0,2,10957,22650,3439,14821,77,78,0,78,0.00,0.00,0.00,0.00
2014-11-24 21:00:00,2,14774,78,0.00,2,2,0,2,11257,20110,2745,14279,77,78,0,78,0.00,0.00,0.00,0.00
2014-11-24 21:10:00,2,8863,77,0.03,2,2,0,2,5129,12934,2494,8764,77,77,0,77,0.00,0.05,0.02,0.05
2014-11-24 21:20:00,2,5982,77,0.07,2,2,0,2,4846,7214,743,6230,77,77,0,77,0.05,0.10,0.02,0.05
2014-11-24 21:30:00,2,4867,75,0.10,2,2,0,2,3983,6145,640,4944,71,77,3,77,0.05,0.20,0.05,0.10
2014-11-24 21:40:00,2,5983,78,0.06,2,2,0,2,4675,7062,861,6077,77,78,0,78,0.00,0.10,0.03,0.05
2014-11-24 21:50:00,2,11506,78,0.03,2,2,0,2,6511,18224,3856,11670,77,78,0,78,0.00,0.05,0.03,0.03
2014-11-24 22:00:00,2,25892,75,0.00,2,2,0,2,19462,32174,4472,25792,71,77,3,77,0.00,0.00,0.00,0.00
2014-11-24 22:10:00,2,31410,75,0.00,2,2,0,2,24407,39114,3801,32070,71,77,3,77,0.00,0.00,0.00,0.00
2014-11-24 22:20:00,2,30098,76,0.00,2,2,0,2,22083,36387,4238,29188,71,77,2,77,0.00,0.00,0.00,0.00
2014-11-24 22:30:00,2,41429,57,0.00,2,2,0,2,29419,50000,7756,43410,0,77,30,74,0.00,0.00,0.00,0.00
2014-11-24 22:40:00,2,48074,0,0.00,1,2,0,2,45473,49705,1056,48314,0,0,0,0,0.00,0.00,0.00,0.00
2014-11-24 22:50:00,1,,,,1,1,0,1,,,,,,,,,,,,
2014-11-24 23:00:00,1,9059,73,0.00,1,2,0,1,0,27176,12811,0,71,77,3,71,0.00,0.00,0.00,0.00
2014-11-24 23:10:00,1,25716,75,0.00,1,2,0,1,0,38476,15155,32194,71,77,3,77,0.00,0.00,0.00,0.00
2014-11-24 23:20:00,1,,,,1,1,0,1,,,,,,,,,,,,
2014-11-24 23:30:00,1,,,,1,1,0,1,,,,,,,,,,,,
2014-11-24 23:40:00,1,,,,1,1,0,1,,,,,,,,,,,,
2014-11-24 23:50:00,1,,,,1,1,0,1,,,,,,,,,,,,
